DW1779 Weather Reports


time (UTC)temp
F
wind
direction
speed
knots
gust
knots
rain 1hr
in
rain 24hr
in
rain mn
in
humidity
%
barometer
mb
20260510164606 67 28 4.3 11.3 0.00 0.00 0.00 49 1019.4
20260510164045 67 341 3.5 13.0 0.00 0.00 0.00 49 1019.4
20260510163545 67 28 5.2 14.8 0.00 0.00 0.00 55 1019.5
20260510163046 66 37 3.5 14.8 0.00 0.00 0.00 53 1019.3
20260510162544 66 340 4.3 15.6 0.00 0.00 0.00 53 1019.3
20260510162046 66 53 4.3 15.6 0.00 0.00 0.00 54 1019.3
20260510161543 66 334 6.1 13.0 0.00 0.00 0.00 57 1019.2
20260510161044 66 9 2.6 9.6 0.00 0.00 0.00 54 1019.3
20260510160643 66 167 2.6 11.3 0.00 0.00 0.00 58 1019.3
20260510160054 66 341 4.3 11.3 0.00 0.00 0.00 53 1019.4
20260510155546 66 315 4.3 12.2 0.00 0.00 0.00 53 1019.4
20260510155045 66 62 5.2 12.2 0.00 0.00 0.00 54 1019.5
20260510154544 65 17 5.2 11.3 0.00 0.00 0.00 53 1019.4
20260510154043 65 315 5.2 11.3 0.00 0.00 0.00 55 1019.5
20260510153542 65 292 2.6 9.6 0.00 0.00 0.00 61 1019.5
20260510153048 65 316 3.5 12.2 0.00 0.00 0.00 57 1019.5
20260510152542 65 17 4.3 12.2 0.00 0.00 0.00 55 1019.4
20260510152043 66 348 3.5 10.4 0.00 0.00 0.00 58 1019.6
20260510151542 66 355 4.3 10.4 0.00 0.00 0.00 60 1019.5
20260510151041 65 336 4.3 9.6 0.00 0.00 0.00 57 1019.5
20260510150640 65 40 3.5 11.3 0.00 0.00 0.00 57 1019.5
20260510150104 64 56 4.3 11.3 0.00 0.00 0.00 55 1019.4
20260510145557 64 61 4.3 11.3 0.00 0.01 0.00 60 1019.4
20260510145058 64 108 5.2 11.3 0.00 0.01 0.00 59 1019.4
20260510144556 64 315 5.2 9.6 0.00 0.01 0.00 60 1019.2
20260510144055 64 345 2.6 10.4 0.00 0.01 0.00 67 1019.0
20260510143553 63 46 2.6 10.4 0.00 0.01 0.00 64 1019.0
20260510143053 63 348 2.6 9.6 0.00 0.01 0.00 66 1019.0
20260510142553 63 350 4.3 10.4 0.00 0.01 0.00 65 1018.9
20260510142052 63 48 4.3 10.4 0.00 0.01 0.00 65 1018.9
20260510141550 63 55 6.1 10.4 0.00 0.01 0.00 64 1018.8
20260510141050 63 26 4.3 9.6 0.00 0.01 0.00 65 1018.7
20260510140648 63 61 2.6 10.4 0.00 0.01 0.00 66 1018.7
20260510140058 62 13 4.3 13.0 0.00 0.01 0.00 67 1018.5
20260510135557 62 311 5.2 13.0 0.00 0.01 0.00 68 1018.6
20260510135056 62 40 3.5 8.7 0.00 0.01 0.00 69 1018.5
20260510134555 62 36 2.6 10.4 0.00 0.01 0.00 72 1018.5
20260510134053 61 76 1.7 12.2 0.00 0.01 0.00 72 1018.4
20260510133553 61 340 1.7 14.8 0.00 0.01 0.00 73 1018.3
20260510133051 60 67 3.5 14.8 0.00 0.01 0.00 74 1018.2
20260510132549 60 11 3.5 10.4 0.00 0.01 0.00 74 1018.2
20260510132047 60 49 2.6 9.6 0.00 0.01 0.00 75 1018.2
20260510131549 60 79 2.6 9.6 0.00 0.01 0.00 76 1018.1
20260510131047 60 16 2.6 12.2 0.00 0.01 0.00 75 1017.9
20260510130648 60 29 4.3 12.2 0.00 0.01 0.00 75 1017.9
20260510130050 60 344 3.5 11.3 0.00 0.01 0.00 79 1017.8
20260510125550 60 19 3.5 8.7 0.00 0.01 0.00 80 1017.8
20260510125047 59 323 3.5 7.8 0.00 0.01 0.00 82 1017.7
20260510124550 59 360 1.7 7.8 0.00 0.01 0.00 83 1017.7
20260510124047 59 315 1.7 7.8 0.00 0.01 0.00 85 1017.6
20260510123548 59 355 3.5 7.8 0.00 0.01 0.00 84 1017.7
20260510123047 59 349 2.6 8.7 0.00 0.01 0.00 85 1017.8
20260510122545 59 67 3.5 9.6 0.00 0.01 0.00 86 1017.8
20260510122044 59 15 4.3 9.6 0.00 0.01 0.00 87 1017.7
20260510121547 59 26 1.7 7.8 0.00 0.01 0.00 87 1017.7
20260510121042 59 355 2.6 8.7 0.00 0.01 0.00 87 1017.6
20260510120514 59 13 1.7 5.2 0.00 0.01 0.00 87 1017.4
20260510120007 58 24 1.7 4.3 0.00 0.01 0.00 87 1017.3
20260510115507 58 67 1.7 7.8 0.00 0.01 0.00 87 1017.1
20260510115008 58 336 0.9 7.8 0.00 0.01 0.00 88 1016.9
20260510114503 57 355 0.9 3.5 0.00 0.01 0.00 90 1016.8
20260510114002 57 360 0.9 3.5 0.00 0.01 0.00 92 1016.5
20260510113600 57 5 0.0 1.7 0.00 0.01 0.00 92 1016.3
20260510113100 57 28 0.0 1.7 0.00 0.01 0.00 93 1016.3
20260510112558 57 333 0.0 0.9 0.00 0.01 0.00 92 1016.2
20260510112057 57 333 0.0 0.9 0.00 0.01 0.00 92 1016.1
20260510111556 57 333 0.0 1.7 0.00 0.01 0.00 91 1015.9
20260510111057 58 333 0.0 1.7 0.00 0.01 0.00 91 1015.8
20260510110655 58 350 0.0 1.7 0.00 0.01 0.00 91 1015.9
20260510110101 58 351 0.0 1.7 0.00 0.01 0.00 91 1015.9
20260510105558 58 342 0.0 1.7 0.00 0.01 0.00 91 1015.8
20260510105100 58 323 0.0 1.7 0.00 0.01 0.00 91 1015.8
20260510104610 58 317 0.9 1.7 0.00 0.01 0.00 91 1015.7
20260510104058 58 317 0.0 0.9 0.00 0.01 0.00 91 1015.5
20260510103556 58 317 0.0 0.0 0.00 0.01 0.00 91 1015.6
20260510103055 58 317 0.0 0.0 0.00 0.01 0.00 90 1015.5
20260510102555 58 317 0.0 0.9 0.00 0.01 0.00 90 1015.4
20260510102053 59 317 0.0 1.7 0.00 0.01 0.00 89 1015.5
20260510101555 59 317 0.0 1.7 0.00 0.01 0.00 88 1015.4
20260510101052 59 355 0.9 1.7 0.00 0.01 0.00 88 1015.2
20260510100652 59 63 0.0 1.7 0.00 0.01 0.00 88 1015.0
20260510100100 59 355 0.0 6.1 0.00 0.01 0.00 89 1015.0
20260510095559 58 5 0.9 4.3 0.00 0.01 0.00 89 1014.9
20260510095056 57 9 1.7 7.0 0.00 0.01 0.00 91 1015.0
20260510094559 57 17 1.7 7.0 0.00 0.01 0.00 92 1015.0
20260510094059 56 331 0.9 2.6 0.00 0.01 0.00 93 1015.0
20260510093554 56 316 0.0 1.7 0.00 0.01 0.00 92 1014.9
20260510093057 56 346 0.0 1.7 0.00 0.01 0.00 93 1014.8
20260510092553 56 314 0.0 0.0 0.00 0.01 0.00 92 1014.4
20260510092056 56 314 0.0 0.0 0.00 0.01 0.00 92 1014.2
20260510091552 56 314 0.0 0.0 0.00 0.01 0.00 92 1014.1
20260510091051 56 314 0.0 0.0 0.00 0.01 0.00 92 1014.1
20260510090651 56 314 0.0 0.0 0.00 0.01 0.00 91 1014.1
20260510085555 56 314 0.0 0.0 0.00 0.01 0.00 91 1014.1
20260510085052 56 314 0.0 0.0 0.00 0.01 0.00 90 1014.3
20260510084557 56 314 0.0 0.0 0.00 0.01 0.00 90 1014.2
20260510084051 57 314 0.0 0.0 0.00 0.01 0.00 90 1014.3
20260510083551 57 314 0.0 0.0 0.00 0.01 0.00 89 1014.3
20260510083054 57 314 0.0 0.0 0.00 0.01 0.00 89 1014.2
20260510082548 57 314 0.0 0.0 0.00 0.01 0.00 89 1014.1
20260510082048 57 314 0.0 0.0 0.00 0.01 0.00 89 1014.1
20260510081549 57 314 0.0 0.0 0.00 0.01 0.00 89 1014.1
20260510081048 58 314 0.0 0.0 0.00 0.01 0.00 89 1014.1
20260510080648 58 314 0.0 0.0 0.00 0.01 0.00 89 1014.0
20260510080054 58 314 0.0 0.0 0.00 0.01 0.00 89 1013.8
20260510075553 58 314 0.0 2.6 0.00 0.01 0.00 89 1013.9
20260510075055 58 314 0.0 3.5 0.00 0.01 0.00 87 1013.9
20260510074607 58 301 1.7 3.5 0.00 0.01 0.00 88 1013.9
20260510074049 57 288 0.9 2.6 0.00 0.01 0.00 89 1013.7
20260510073549 57 35 0.0 0.9 0.00 0.01 0.00 89 1013.6
20260510073050 58 35 0.0 0.9 0.00 0.01 0.00 89 1013.6
20260510072548 58 51 0.0 0.0 0.00 0.01 0.00 89 1013.5
20260510072048 58 51 0.0 0.0 0.00 0.01 0.00 88 1013.5
20260510071556 59 51 0.0 0.0 0.00 0.01 0.00 88 1013.4
20260510071049 59 51 0.0 0.0 0.00 0.01 0.00 87 1013.5
20260510070647 59 51 0.0 0.0 0.00 0.01 0.00 87 1013.6
20260510070049 59 51 0.0 0.9 0.00 0.01 0.00 85 1013.6
20260510065548 59 51 0.0 0.9 0.00 0.01 0.00 86 1013.6
20260510065046 59 51 0.0 0.9 0.00 0.01 0.00 86 1013.6
20260510064604 59 51 0.0 1.7 0.00 0.01 0.00 87 1013.7
20260510064045 59 5 0.0 1.7 0.00 0.01 0.00 84 1013.7
20260510063549 59 96 0.0 1.7 0.00 0.01 0.00 83 1013.6
20260510063044 60 130 0.0 1.7 0.00 0.01 0.00 80 1013.5
20260510062544 60 281 0.0 1.7 0.00 0.01 0.00 82 1013.7
20260510062042 60 282 0.0 2.6 0.00 0.01 0.00 82 1013.6
20260510061543 61 282 0.0 2.6 0.00 0.01 0.00 82 1013.6
20260510061041 61 141 0.0 1.7 0.00 0.01 0.00 78 1013.6
20260510060512 61 141 0.0 1.7 0.00 0.01 0.00 79 1013.7
20260510060008 62 134 0.0 2.6 0.00 0.01 0.00 79 1013.7
20260510055506 62 138 0.0 2.6 0.00 0.01 0.00 79 1013.6
20260510055004 63 128 0.9 1.7 0.00 0.01 0.00 77 1013.7
20260510054505 63 171 0.0 1.7 0.00 0.01 0.00 73 1013.8
20260510054002 63 203 0.9 1.7 0.00 0.01 0.00 74 1013.8
20260510053501 64 203 0.0 1.7 0.00 0.01 0.00 73 1013.6
20260510053000 65 240 0.0 1.7 0.00 0.01 0.00 68 1013.6
20260510052501 65 275 0.0 1.7 0.00 0.01 0.00 71 1013.7
20260510052100 64 291 0.9 2.6 0.00 0.01 0.00 70 1013.7
20260510051606 66 283 0.9 4.3 0.00 0.01 0.00 70 1013.6
20260510051058 67 294 1.7 6.1 0.00 0.01 0.00 64 1013.6
20260510050658 67 307 2.6 7.8 0.00 0.01 0.00 63 1013.6
20260510050059 67 308 1.7 10.4 0.00 0.01 0.00 65 1013.5
20260510045554 66 344 3.5 10.4 0.00 0.08 0.01 66 1013.2
20260510045053 65 346 4.3 10.4 0.00 0.08 0.01 69 1013.3
20260510044555 64 326 3.5 7.8 0.00 0.08 0.01 71 1013.1
20260510044052 63 291 0.9 2.6 0.00 0.08 0.01 77 1012.5
20260510043550 63 207 0.0 3.5 0.00 0.08 0.01 76 1012.5
20260510043058 63 198 0.0 3.5 0.00 0.08 0.01 77 1012.5
20260510042549 61 219 0.0 3.5 0.00 0.08 0.01 80 1012.4
20260510042049 60 304 0.0 3.5 0.00 0.08 0.01 85 1012.4
20260510041607 59 200 0.9 4.3 0.00 0.08 0.01 89 1012.3
20260510041053 58 192 1.7 4.3 0.00 0.08 0.01 90 1012.2
20260510040649 58 186 0.9 4.3 0.00 0.08 0.01 90 1012.3
20260510040047 58 207 0.0 0.0 0.00 0.08 0.01 92 1012.3
20260510035547 58 207 0.0 0.0 0.00 0.50 0.01 92 1012.5
20260510035046 57 207 0.0 0.0 0.00 0.50 0.01 93 1012.5
20260510034546 57 207 0.0 0.9 0.00 0.50 0.01 92 1012.4
20260510034049 57 207 0.0 1.7 0.00 0.50 0.01 92 1012.5
20260510033547 57 207 0.9 1.7 0.00 0.50 0.01 92 1012.4
20260510033046 57 207 0.9 1.7 0.00 0.50 0.01 92 1012.2
20260510032548 57 207 0.0 0.9 0.00 0.50 0.01 92 1012.3
20260510032046 57 207 0.0 0.9 0.00 0.50 0.01 92 1012.2
20260510031544 57 207 0.0 1.7 0.00 0.50 0.01 91 1012.2
20260510031045 57 207 0.0 1.7 0.00 0.50 0.01 91 1012.1
20260510030646 57 207 0.9 1.7 0.00 0.50 0.01 91 1012.0
20260510030049 58 207 0.9 1.7 0.00 0.50 0.01 91 1012.1
20260510025544 58 207 0.0 1.7 0.00 0.51 0.01 91 1012.2
20260510025041 58 207 0.0 1.7 0.00 0.51 0.01 91 1012.0
20260510024552 58 207 0.0 1.7 0.00 0.51 0.01 90 1012.0
20260510024045 58 228 0.0 0.0 0.00 0.51 0.01 90 1011.8
20260510023541 58 312 0.0 0.0 0.00 0.51 0.01 89 1011.7
20260510023041 59 312 0.0 0.0 0.00 0.51 0.01 89 1011.8
20260510022546 59 312 0.0 0.0 0.00 0.51 0.01 88 1011.6
20260510022042 59 312 0.0 0.0 0.00 0.51 0.01 87 1011.5
20260510021542 59 312 0.0 0.0 0.00 0.51 0.01 87 1011.3
20260510021040 60 312 0.0 0.0 0.00 0.51 0.01 87 1011.2
20260510020641 60 312 0.0 0.0 0.00 0.51 0.01 87 1011.1
20260510020049 60 312 0.0 0.0 0.00 0.51 0.01 86 1011.0
20260510015541 61 312 0.0 0.0 0.00 0.51 0.01 85 1010.9
20260510015042 61 312 0.0 0.0 0.00 0.51 0.01 85 1010.9
20260510014540 61 312 0.0 0.0 0.00 0.51 0.01 85 1010.9
20260510014039 62 312 0.0 0.0 0.00 0.51 0.01 85 1010.7
20260510013539 62 312 0.0 0.0 0.00 0.51 0.01 84 1010.7
20260510013046 62 312 0.0 0.0 0.00 0.51 0.01 83 1010.7
20260510012543 63 312 0.0 0.0 0.00 0.51 0.01 82 1010.7
20260510012039 63 312 0.0 0.0 0.00 0.51 0.01 81 1010.6
20260510011540 63 312 0.0 0.0 0.00 0.51 0.01 79 1010.6
20260510011038 64 312 0.0 0.0 0.00 0.51 0.01 77 1010.4
20260510010638 65 312 0.0 0.0 0.00 0.51 0.01 77 1010.3
20260510010110 65 312 0.0 0.0 0.00 0.51 0.01 75 1010.3
20260510005557 66 312 0.0 0.0 0.00 0.54 0.01 73 1010.2
20260510005056 67 312 0.0 0.0 0.00 0.54 0.01 72 1010.1
20260510004603 67 312 0.0 0.9 0.00 0.54 0.01 72 1010.1
20260510004056 68 312 0.0 0.9 0.00 0.54 0.01 70 1010.1
20260510003556 68 312 0.0 0.9 0.00 0.54 0.01 70 1010.0
20260510003057 69 312 0.0 0.9 0.00 0.54 0.01 69 1010.0
20260510002558 70 312 0.0 0.9 0.00 0.54 0.01 66 1009.9
20260510002055 71 312 0.0 0.0 0.00 0.54 0.01 63 1009.9
20260510001555 71 312 0.0 0.0 0.00 0.54 0.01 59 1010.0
20260510001057 72 312 0.0 0.9 0.00 0.54 0.01 60 1009.9
20260510000656 72 312 0.0 1.7 0.00 0.54 0.01 56 1009.9
20260510000057 73 294 0.0 2.6 0.00 0.54 0.01 57 1009.9
20260509235551 74 300 0.0 3.5 0.00 0.54 0.01 56 1009.8
20260509235051 75 303 0.9 3.5 0.00 0.54 0.01 55 1009.8
20260509234602 76 294 0.0 2.6 0.00 0.54 0.01 52 1009.8
20260509234053 78 309 0.9 3.5 0.00 0.54 0.01 44 1009.9
20260509233551 78 287 0.9 3.5 0.00 0.54 0.01 41 1009.7
20260509233050 78 300 0.9 7.8 0.00 0.54 0.01 44 1009.8
20260509232550 78 255 4.3 7.8 0.00 0.54 0.01 43 1009.8
20260509232050 78 295 1.7 6.1 0.00 0.54 0.01 43 1009.9
20260509231550 78 295 1.7 4.3 0.00 0.54 0.01 42 1009.9
20260509231049 78 328 1.7 4.3 0.00 0.54 0.01 43 1009.8
20260509230651 78 301 0.0 6.1 0.00 0.54 0.01 47 1009.8
20260509230048 78 298 0.9 6.1 0.00 0.54 0.01 47 1009.8
20260509225548 78 315 2.6 8.7 0.00 0.54 0.01 45 1009.9
20260509225047 78 286 2.6 8.7 0.00 0.54 0.01 43 1009.8
20260509224548 78 268 2.6 5.2 0.00 0.54 0.01 46 1009.7
20260509224049 78 325 1.7 6.1 0.00 0.54 0.01 41 1009.7
20260509223547 78 309 1.7 8.7 0.00 0.54 0.01 43 1009.6
20260509223049 78 286 4.3 8.7 0.00 0.54 0.01 41 1009.7
20260509222546 78 327 1.7 7.0 0.00 0.54 0.01 43 1009.7
20260509222046 78 348 2.6 7.8 0.00 0.54 0.01 42 1009.6
20260509221603 78 325 2.6 7.8 0.00 0.54 0.01 44 1009.7
20260509221046 78 271 1.7 7.0 0.00 0.54 0.01 45 1009.5
20260509220647 78 263 1.7 6.1 0.00 0.54 0.01 44 1009.6
20260509220058 79 334 1.7 6.1 0.00 0.54 0.01 42 1009.6
20260509215646 79 331 0.9 4.3 0.00 0.54 0.01 43 1009.7
20260509215044 79 263 1.7 9.6 0.00 0.54 0.01 40 1009.6
20260509214544 79 296 4.3 9.6 0.00 0.54 0.01 46 1009.6
20260509214044 79 270 2.6 5.2 0.00 0.54 0.01 46 1009.6
20260509213544 79 283 2.6 5.2 0.00 0.54 0.01 46 1009.7
20260509213044 79 284 1.7 9.6 0.00 0.54 0.01 48 1009.5
20260509212544 79 300 3.5 9.6 0.00 0.54 0.01 41 1009.6
20260509212046 79 310 3.5 8.7 0.00 0.54 0.01 45 1009.7
20260509211546 79 296 1.7 8.7 0.00 0.54 0.01 48 1009.9
20260509211048 80 298 2.6 10.4 0.00 0.54 0.01 42 1009.9
20260509210643 80 289 3.5 10.4 0.00 0.54 0.01 43 1009.9
20260509210105 79 296 2.6 10.4 0.00 0.54 0.01 39 1010.0
20260509205600 79 297 2.6 12.2 0.00 0.54 0.01 44 1010.1
20260509205100 80 317 4.3 12.2 0.00 0.54 0.01 44 1010.2
20260509204602 79 306 6.1 10.4 0.00 0.54 0.01 41 1010.3
20260509204059 79 319 2.6 11.3 0.00 0.54 0.01 42 1010.3
20260509203558 79 336 3.5 11.3 0.00 0.54 0.01 49 1010.3
20260509203100 79 266 1.7 11.3 0.00 0.54 0.01 47 1010.3
20260509202558 79 290 2.6 10.4 0.00 0.54 0.01 44 1010.3
20260509202058 79 329 5.2 10.4 0.00 0.54 0.01 43 1010.5
20260509201558 79 306 2.6 8.7 0.00 0.54 0.01 47 1010.5
20260509201056 79 259 2.6 8.7 0.00 0.54 0.01 52 1010.5
20260509200502 79 304 2.6 11.3 0.00 0.54 0.01 43 1010.6
20260509200001 79 294 5.2 11.3 0.00 0.54 0.01 44 1010.6
20260509195601 79 293 3.5 11.3 0.00 0.54 0.01 46 1010.7
20260509195103 79 309 1.7 7.0 0.00 0.54 0.01 48 1010.7
20260509194559 79 304 2.6 9.6 0.00 0.54 0.01 47 1010.7
20260509194059 79 315 2.6 9.6 0.00 0.54 0.01 48 1010.7
20260509193559 78 299 1.7 9.6 0.00 0.54 0.01 45 1010.7
20260509193125 78 307 6.1 11.3 0.00 0.54 0.01 44 1010.7
20260509192557 79 272 4.3 11.3 0.00 0.54 0.01 50 1010.7
20260509192101 79 333 4.3 9.6 0.00 0.54 0.01 48 1010.6
20260509191613 78 279 1.7 10.4 0.00 0.54 0.01 49 1010.6
20260509191057 78 307 4.3 10.4 0.00 0.54 0.01 52 1010.5
20260509190655 78 310 3.5 10.4 0.00 0.54 0.01 52 1010.6
20260509190111 78 212 3.5 9.6 0.00 0.54 0.01 52 1010.5
20260509185556 78 300 5.2 9.6 0.00 0.54 0.01 48 1010.7
20260509185056 78 263 3.5 8.7 0.00 0.54 0.01 54 1010.7
20260509184554 78 295 3.5 9.6 0.00 0.54 0.01 53 1010.7
20260509184054 77 263 3.5 10.4 0.00 0.54 0.01 54 1010.7
20260509183554 77 281 4.3 10.4 0.00 0.54 0.01 52 1010.7
20260509183055 77 262 4.3 11.3 0.00 0.54 0.01 51 1010.7
20260509182552 77 283 2.6 11.3 0.00 0.54 0.01 54 1010.7
20260509182052 77 360 3.5 9.6 0.00 0.54 0.01 56 1010.9
20260509181551 77 318 3.5 9.6 0.00 0.54 0.01 57 1010.9
20260509181051 76 338 4.3 9.6 0.00 0.54 0.01 55 1010.9
20260509180651 76 298 3.5 9.6 0.00 0.54 0.01 58 1010.9
20260509180054 76 295 4.3 13.9 0.00 0.54 0.01 56 1011.1
20260509175554 76 49 5.2 13.9 0.00 0.54 0.01 56 1011.1
20260509175053 76 294 4.3 9.6 0.00 0.54 0.01 56 1011.1
20260509174552 76 285 3.5 12.2 0.00 0.54 0.01 55 1011.1
20260509174051 76 307 6.1 12.2 0.00 0.54 0.01 55 1011.3
20260509173549 75 275 5.2 10.4 0.00 0.54 0.01 54 1011.2
20260509173057 75 273 4.3 12.2 0.00 0.54 0.01 56 1011.2
20260509172550 75 280 4.3 12.2 0.00 0.54 0.01 58 1011.3
20260509172047 75 315 3.5 8.7 0.00 0.54 0.01 58 1011.3
20260509171559 74 317 1.7 11.3 0.00 0.54 0.01 63 1011.3
20260509171045 74 322 3.5 14.8 0.00 0.54 0.01 58 1011.4
20260509170645 74 288 6.1 14.8 0.00 0.54 0.01 58 1011.5
20260509170055 74 311 4.3 11.3 0.00 0.54 0.01 60 1011.4
20260509165554 74 337 3.5 7.8 0.00 0.54 0.01 61 1011.4
20260509165052 74 290 2.6 7.0 0.00 0.54 0.01 67 1011.5